Dewpoint
49 49 50 50 50 51 51 51 52 52 52 53 54 53 52 51 50 48 48 47 47 47 46 48 49 50 50 49 50 50 51 44 40 39 37 37 44 57 55 56 54 55 55 37 30 29 26 25 23 23 28 29 29 27 24 19 16 13 11 8 6 3 -1 -1 -1 -0 -2 -7 -2 6 4 3 0 -1 -2 11 15 17 25 22 18 46 31 54 60 63 63 64
48 48 49 49 50 50 50 51 51 51 52 52 53 54 53 53 51 50 48 47 47 47 47 48 50 49 49 49 49 50 48 42 41 39 38 43 59 54 55 54 50 54 45 31 28 27 24 21 22 20 22 24 24 20 22 20 18 13 10 7 4 4 2 0 -0 -0 -2 -4 5 3 5 6 4 1 5 25 32 31 29 25 40 45 50 59 62 63 63 63
47 47 48 48 49 49 50 50 50 50 50 51 52 52 53 53 52 51 49 48 47 47 47 48 48 48 48 48 49 51 46 40 40 38 38 57 58 57 56 54 54 55 37 27 25 26 23 20 19 18 18 19 19 17 19 18 18 14 10 6 6 6 3 4 3 0 -2 -4 -5 4 10 9 7 4 8 29 33 32 30 24 48 55 61 62 63 64 64 64
47 47 48 48 48 48 49 49 50 50 50 50 51 52 53 53 53 51 50 49 48 48 47 47 47 47 47 47 49 47 42 40 36 35 44 52 52 54 54 55 55 52 39 33 31 27 24 22 19 15 15 16 17 16 15 14 16 14 10 8 6 4 1 -0 1 -1 -4 -2 -1 3 9 11 9 6 11 12 24 28 28 24 35 55 59 62 63 64 65 65
47 47 47 47 47 47 48 48 49 49 49 49 49 51 51 52 53 53 51 51 49 48 47 46 46 48 48 48 50 44 38 31 22 38 40 49 50 51 52 54 54 42 35 32 30 31 33 29 21 15 13 15 15 15 13 12 13 15 12 9 6 3 1 1 -1 -3 -1 3 4 2 3 9 11 8 6 6 12 19 24 24 29 58 62 62 62 64 65 65
46 46 47 46 47 47 47 47 47 48 48 49 49 49 50 51 52 52 53 51 50 48 48 47 47 47 49 49 45 41 38 26 36 36 45 53 52 49 51 51 53 45 37 34 30 28 29 30 26 16 12 12 13 12 13 11 11 14 14 10 7 3 2 0 -2 0 8 5 4 3 2 7 8 5 10 12 12 12 13 27 26 58 62 63 64 64 65 66
45 46 46 46 46 46 46 47 47 47 47 48 49 49 49 49 50 51 52 52 50 49 48 47 47 47 48 50 43 38 36 36 37 40 54 56 50 50 50 52 54 45 39 36 32 27 25 27 24 17 14 11 12 10 11 11 10 12 11 9 6 5 3 2 1 8 10 10 7 4 6 3 4 1 6 11 11 10 9 37 44 56 62 63 64 65 65 65
45 45 45 45 46 46 46 46 47 47 47 47 48 48 49 49 49 50 52 52 51 50 49 47 47 47 48 41 36 31 31 32 32 36 53 53 42 44 50 37 37 38 33 34 32 27 22 22 21 17 15 12 10 9 8 8 9 9 11 10 7 6 4 3 2 6 11 11 9 8 4 2 0 5 10 9 8 10 20 47 49 53 60 63 64 65 66 65
45 45 45 45 44 45 46 46 46 47 47 47 47 47 48 49 49 49 51 52 51 51 50 47 47 47 47 42 37 33 28 28 30 38 39 37 28 29 29 26 26 35 29 29 32 27 22 18 18 15 13 14 12 7 8 6 7 9 10 10 9 7 5 3 2 3 10 14 14 10 5 3 3 9 9 9 8 11 42 52 53 58 56 56 61 64 65 65
46 45 45 45 46 46 44 45 46 46 46 46 47 47 47 48 48 49 49 51 51 50 51 49 47 47 42 35 32 28 28 27 32 34 32 30 29 28 27 26 29 37 35 25 27 28 22 18 14 13 12 13 12 7 4 5 5 8 9 9 9 8 6 5 6 5 8 13 13 8 5 3 5 7 6 10 9 14 32 51 54 56 58 60 62 64 65 64
46 46 46 46 46 45 46 44 45 46 46 45 46 46 47 47 48 48 48 49 50 50 50 49 49 46 39 35 29 28 29 27 27 29 30 29 27 27 27 26 25 27 37 31 24 26 25 20 14 10 10 10 10 7 4 3 4 4 6 8 7 8 8 6 5 6 6 11 13 10 7 6 5 4 5 7 10 11 17 50 53 53 55 56 61 62 64 60
46 47 47 46 46 46 45 46 45 44 45 45 45 46 46 47 48 48 48 48 50 50 51 50 50 44 39 37 33 28 29 29 29 29 31 31 29 27 27 28 27 25 28 33 27 25 25 22 17 9 7 10 9 8 5 4 2 0 2 2 4 6 6 7 3 9 14 13 13 10 7 5 5 3 5 7 7 18 20 50 48 52 53 53 55 60 59 61
47 46 46 47 46 46 46 45 45 44 45 44 44 45 45 46 47 48 48 48 48 50 51 51 50 44 42 37 35 36 35 33 31 30 30 30 30 29 29 29 28 27 25 26 34 29 24 22 17 11 9 8 7 7 6 5 3 1 2 2 8 9 7 7 4 6 12 12 10 7 5 4 3 4 5 8 10 27 32 49 54 53 53 56 59 59 60 61
47 47 46 46 47 46 46 45 45 45 45 44 44 44 45 46 47 48 48 47 48 50 51 50 48 45 42 38 38 37 36 35 33 31 30 30 29 29 28 27 28 27 25 24 26 34 28 22 17 12 10 8 8 7 6 7 6 1 2 2 6 7 7 7 4 6 9 10 8 6 6 3 3 3 7 18 24 43 53 56 57 58 57 57 56 58 59 60
47 47 47 46 46 46 46 46 45 45 45 45 44 45 45 45 46 47 48 47 47 49 51 50 45 43 40 37 37 37 45 38 34 31 29 27 27 27 27 26 25 26 24 23 24 29 30 21 15 11 10 10 9 7 5 6 7 4 3 4 5 5 4 5 4 3 6 7 8 7 7 4 4 19 26 32 49 54 52 57 58 58 57 57 57 59 59 60
46 47 47 46 46 46 46 46 46 45 45 45 45 45 45 45 46 47 47 47 48 50 47 45 44 42 39 34 34 40 32 33 34 33 31 26 25 24 25 23 23 24 24 21 23 28 29 23 13 10 8 10 9 8 7 4 3 5 5 8 6 4 3 3 1 1 4 5 8 8 3 2 7 51 54 57 56 56 54 55 56 57 57 56 57 59 59 59
46 47 46 46 46 47 46 45 46 46 45 45 45 45 45 45 45 46 46 46 45 45 44 41 39 39 34 36 35 31 28 26 31 31 29 27 24 24 24 21 19 21 22 21 21 25 26 21 15 9 7 8 9 9 10 6 4 4 3 6 4 1 4 0 -2 1 3 4 3 6 3 3 37 54 54 56 55 54 53 56 57 56 57 58 57 57 58 57
46 46 46 46 46 46 46 46 45 45 45 45 45 44 42 45 46 46 45 45 38 39 42 42 39 38 32 35 32 30 29 26 25 25 25 27 24 23 24 20 18 19 20 19 19 20 22 16 11 7 6 7 11 11 11 8 9 7 7 8 4 4 4 -3 -7 -3 2 3 2 3 3 2 51 53 54 54 55 53 52 54 55 55 56 57 57 57 56 58
46 46 46 46 46 46 46 45 45 45 45 46 45 46 47 47 43 39 36 36 36 36 33 35 38 28 19 22 30 32 29 24 25 23 20 22 22 21 22 21 17 17 17 18 18 17 16 12 9 8 9 11 12 10 9 8 7 3 5 5 4 4 -2 -4 -6 -6 2 3 2 -0 1 3 39 51 53 53 52 52 53 55 55 55 57 57 56 56 56 57
46 46 46 46 46 45 45 45 45 45 44 42 37 35 33 31 37 38 38 35 32 32 31 30 37 31 27 24 24 25 27 22 22 24 21 20 19 19 18 18 16 15 17 20 18 14 14 12 12 12 10 10 11 10 7 7 7 3 4 5 3 -2 -4 -3 -6 -6 3 3 3 0 0 5 24 49 52 52 52 52 54 55 56 56 57 57 56 57 58 60
46 46 46 46 45 45 45 45 45 44 44 41 38 33 27 26 23 20 27 29 32 31 31 29 31 32 29 28 27 25 21 18 20 22 22 21 20 16 15 17 16 13 16 19 17 14 13 13 12 10 10 9 8 8 6 5 6 3 -1 2 1 -3 -6 -5 -7 -10 3 9 3 4 -2 5 36 48 49 52 52 51 53 55 55 56 56 58 57 58 61 62
45 46 46 45 46 45 45 44 44 44 44 42 38 32 29 27 26 24 25 22 23 28 29 29 28 28 30 30 29 28 26 18 20 19 20 22 19 15 16 17 14 11 16 18 17 15 14 12 9 9 7 5 4 3 6 7 5 4 1 1 -0 -2 -5 -6 -5 -8 2 7 7 1 -1 0 34 47 47 49 50 50 51 55 56 56 56 57 58 59 60 60
45 45 46 45 45 45 45 44 44 46 42 39 34 31 30 29 29 29 31 27 27 27 27 29 27 27 26 26 26 27 25 21 17 17 17 20 20 16 15 16 14 12 15 17 15 15 13 10 10 7 5 1 0 2 6 6 5 4 3 2 -1 -2 -5 -5 -6 -5 -3 7 5 3 -1 11 46 46 47 47 47 51 54 56 57 56 56 57 59 59 59 59
45 45 45 46 45 45 45 45 46 43 39 35 33 31 30 30 28 35 29 28 27 26 24 23 28 28 25 24 25 25 23 22 20 19 17 18 18 16 14 14 13 12 13 16 15 13 9 9 10 7 5 2 2 3 2 4 4 5 2 -0 -0 -2 -4 -7 -5 -7 -2 2 2 -2 5 42 45 45 46 47 48 51 52 56 56 56 57 58 59 59 60 59
45 45 45 45 45 44 45 45 39 37 36 40 34 35 41 39 38 36 35 27 24 23 25 22 26 28 28 28 26 22 23 23 20 21 18 17 17 14 13 13 12 10 12 14 14 12 10 8 8 6 4 2 1 -0 -1 3 5 4 2 1 2 1 -4 -5 -2 -3 3 6 1 -0 5 36 42 43 45 45 48 51 51 54 55 56 57 58 58 58 59 60
44 45 45 45 44 44 45 39 36 35 35 34 36 39 40 41 39 41 34 25 18 14 14 15 20 20 27 25 24 22 22 20 21 19 20 19 20 13 12 11 12 10 11 13 13 13 10 9 8 7 5 3 1 3 5 5 5 5 2 1 1 3 -1 -4 -2 -4 6 6 3 2 2 17 41 40 44 45 47 50 52 51 53 54 56 58 57 57 58 59
46 45 45 44 44 43 39 33 34 34 32 30 36 38 40 42 45 42 29 18 14 14 11 11 17 17 23 22 24 23 18 18 19 20 19 22 19 17 11 10 11 11 12 13 15 10 11 8 8 8 6 4 4 4 4 3 1 -0 -1 1 4 6 1 -3 -5 4 5 6 4 2 1 18 38 43 46 44 45 48 51 51 49 53 54 54 55 55 56 59
46 47 46 45 44 43 39 39 37 38 34 38 41 42 40 39 43 41 26 10 9 11 10 9 13 15 19 21 22 20 20 18 16 17 19 20 21 17 12 8 8 9 11 11 11 11 14 9 8 8 7 5 5 4 0 -0 -1 -1 1 5 7 8 2 -4 -6 -0 5 7 7 6 2 3 32 39 42 44 42 47 48 49 49 49 52 54 54 53 55 60
47 46 46 45 45 45 43 40 38 36 40 37 39 40 41 42 37 29 17 9 18 14 18 11 14 16 15 18 18 19 19 17 14 14 17 18 20 17 11 10 7 7 9 10 11 10 11 10 8 8 7 6 7 4 0 1 -0 -0 4 6 6 4 2 1 2 1 4 9 11 6 2 0 -1 39 39 42 43 43 44 46 47 49 49 52 55 54 57 59
46 46 45 45 44 42 44 42 39 37 38 39 42 43 37 40 31 16 15 10 35 23 21 22 17 18 17 17 17 17 18 16 13 14 17 17 18 18 15 13 7 6 8 9 10 9 10 16 14 9 7 6 6 4 3 4 3 2 3 1 -0 -0 3 5 9 6 6 10 8 5 -2 -5 -1 32 36 38 41 44 44 44 45 44 48 51 54 54 58 59
46 46 45 45 40 39 38 37 37 39 42 41 40 38 40 33 21 12 9 13 27 31 29 27 18 18 17 17 16 17 18 15 10 14 15 17 15 16 16 11 10 5 8 8 10 10 8 10 9 8 9 7 6 4 4 4 3 0 1 -1 -2 3 4 9 11 11 12 6 5 4 0 -3 2 32 33 37 40 42 44 45 47 43 45 47 52 53 58 59
46 46 46 43 41 43 39 36 42 43 43 42 41 38 33 19 20 15 11 32 23 28 29 30 34 20 18 17 17 16 16 17 11 12 14 15 15 15 15 13 12 8 7 9 9 8 7 9 10 7 14 6 4 4 2 -1 -1 0 3 0 4 4 13 8 9 11 6 8 7 3 1 -1 2 30 33 35 35 40 38 40 42 42 44 48 53 55 56 60
47 46 46 44 44 43 40 42 44 44 40 38 40 36 25 17 10 13 14 26 21 31 27 34 33 32 20 19 18 17 17 15 10 10 13 14 13 14 16 14 10 9 7 13 9 9 10 8 6 4 3 6 6 4 2 4 5 4 4 3 5 5 6 11 7 13 9 6 3 3 2 1 5 26 36 35 32 35 42 41 39 42 42 44 55 58 58 59
47 47 43 44 42 39 39 42 41 42 42 41 37 31 25 17 15 29 25 26 25 32 34 33 31 30 25 20 21 15 14 14 9 9 12 13 13 16 15 15 10 6 7 14 9 10 14 4 5 5 7 9 6 4 3 0 -0 -0 -1 -1 9 7 7 11 5 10 10 8 6 3 -2 5 2 12 35 36 34 33 36 37 39 41 47 50 56 57 59 60
47 48 47 45 44 41 41 40 43 43 39 39 33 25 18 15 19 21 23 26 28 30 27 29 29 30 22 20 18 12 13 13 10 10 11 12 14 14 15 14 12 7 7 12 14 15 6 12 12 10 11 9 7 5 2 -1 -2 -4 -4 1 8 11 9 3 10 9 10 6 10 6 11 11 14 23 30 30 31 30 34 37 40 40 55 55 56 58 58 58
46 45 43 42 41 42 40 41 43 43 40 35 29 21 17 24 22 27 25 32 32 28 28 29 29 28 20 19 14 9 12 12 10 10 9 10 11 12 12 13 11 7 11 14 16 11 11 15 12 13 13 9 8 7 1 -1 5 0 -3 5 6 7 3 18 19 25 26 18 10 12 12 20 27 25 28 29 30 31 34 36 37 45 54 55 57 57 57 58
41 43 40 40 39 38 40 42 42 41 37 33 27 20 24 24 26 28 30 30 31 32 30 24 25 26 21 18 9 7 10 14 12 8 9 8 10 11 9 10 9 8 7 13 15 10 13 14 13 13 11 8 6 4 0 0 1 -2 0 2 6 6 6 15 7 18 15 13 12 9 7 20 19 24 28 28 28 31 33 36 40 47 54 54 56 57 57 58
41 40 38 39 33 35 39 40 40 38 35 32 26 26 25 23 29 29 29 31 32 32 29 27 27 31 20 15 7 7 11 14 11 9 9 7 10 11 9 6 7 7 8 13 15 12 11 12 12 12 10 6 4 2 1 -3 1 -2 -2 1 5 11 10 9 16 15 13 13 10 8 6 6 12 24 27 29 29 31 38 39 39 43 51 55 56 57 58 58
43 41 35 35 35 38 38 39 38 34 32 29 26 20 22 20 22 26 29 31 33 32 28 30 27 31 31 14 9 7 12 13 10 10 11 9 10 11 8 4 5 6 8 11 12 17 16 15 13 11 8 5 4 3 6 1 1 1 1 0 3 7 12 8 13 12 12 11 14 7 5 9 10 24 28 30 30 33 34 37 36 37 51 55 56 57 57 57
40 38 32 38 35 37 38 38 37 36 32 25 23 22 21 19 22 24 27 33 32 30 28 28 31 29 32 30 10 10 12 12 9 10 10 13 10 9 6 5 4 5 7 9 9 11 16 24 14 10 7 5 4 4 4 3 5 3 3 2 1 13 3 3 15 6 11 12 10 10 9 11 18 23 28 27 30 33 35 39 49 54 55 57 57 57 57 58
40 33 33 40 39 39 39 37 33 30 28 30 29 24 18 23 25 26 29 33 34 35 32 31 31 30 33 31 26 10 11 12 10 11 9 9 10 12 7 4 4 5 7 8 8 14 20 17 16 11 7 6 5 5 4 4 2 2 3 1 -1 3 3 3 8 5 5 11 16 10 14 17 20 21 31 29 33 32 32 52 54 55 56 57 57 57 57 57
38 26 30 41 41 39 35 32 33 36 31 27 22 23 23 28 26 26 26 27 31 33 36 34 35 35 34 30 24 12 14 13 10 10 10 11 14 10 8 5 5 7 8 15 10 15 22 21 21 15 12 7 7 6 7 5 4 2 0 0 -0 6 5 4 8 10 5 6 7 13 13 16 34 36 33 35 35 31 35 43 54 55 56 57 56 57 57 57
34 33 40 41 42 37 35 32 32 28 28 26 26 28 29 29 28 28 28 30 31 34 35 34 34 33 33 33 26 13 13 12 9 13 12 12 16 10 8 4 1 5 8 11 8 15 26 19 16 13 10 8 9 8 8 6 4 2 2 3 1 3 4 10 11 15 12 12 10 14 14 20 34 41 42 40 36 35 36 43 53 56 57 57 56 56 57 57
35 36 34 42 42 40 32 25 20 23 25 25 28 28 34 32 32 31 31 30 32 33 34 34 32 34 34 33 30 16 13 17 13 16 13 14 15 13 6 6 6 2 5 15 15 23 18 22 15 14 13 9 8 7 5 4 4 6 6 7 3 0 2 11 10 21 14 12 10 12 11 31 37 44 35 35 32 31 32 49 54 55 57 56 56 56 56 56
37 36 35 35 40 38 28 27 24 24 26 27 29 29 31 32 33 33 32 32 34 34 34 33 33 33 33 31 25 20 13 15 18 18 14 15 17 13 8 9 7 7 8 11 43 14 17 21 19 15 14 11 10 9 8 6 5 7 6 4 3 1 8 14 11 12 11 18 13 13 9 35 36 42 36 33 32 32 35 53 56 56 56 56 56 56 56 56
34 30 32 31 35 33 31 33 30 28 27 28 29 29 28 30 35 33 33 35 33 34 34 33 32 33 31 31 29 22 15 14 18 17 12 15 12 10 11 10 8 6 24 42 35 19 22 23 20 17 12 12 13 7 7 7 5 7 6 5 3 4 3 13 14 13 12 18 17 16 17 33 34 36 39 35 35 36 52 51 55 55 56 56 56 56 55 55
36 32 30 30 33 33 32 36 31 31 30 32 28 28 28 31 34 35 35 34 35 34 36 35 34 34 31 29 25 18 17 16 15 14 16 17 14 13 11 10 8 17 35 27 31 21 21 18 19 20 18 9 5 6 8 10 8 8 7 6 2 5 11 19 17 16 17 15 11 18 34 34 33 34 33 38 41 53 53 54 54 54 55 56 56 55 54 55
32 32 33 36 32 29 30 30 31 32 31 32 31 31 29 30 32 33 35 35 37 38 34 34 33 33 30 28 25 24 20 18 17 22 18 15 12 14 12 9 8 28 28 13 13 19 20 19 20 21 15 12 8 6 7 8 8 8 7 10 10 8 13 20 26 15 23 17 14 29 39 36 30 32 35 48 52 52 53 52 54 54 55 56 56 55 55 55
33 33 34 36 31 32 32 32 32 33 33 33 31 31 30 31 31 33 34 35 38 38 37 32 35 31 27 26 27 26 22 20 23 21 22 19 17 15 13 9 8 9 10 16 12 25 21 19 21 18 17 15 9 8 8 8 7 6 7 11 12 14 16 16 19 19 17 25 22 24 39 38 33 33 48 51 53 53 53 53 53 54 54 54 55 55 55 55
33 32 31 35 34 32 32 33 33 34 33 34 30 31 32 32 31 32 33 35 34 37 37 37 35 34 27 29 29 27 30 39 35 28 25 21 19 17 15 18 13 7 5 13 13 23 20 16 23 19 14 14 17 10 6 12 9 7 2 6 8 11 8 10 18 24 27 22 24 26 33 29 28 38 51 52 53 53 53 52 52 53 54 54 54 54 54 55
39 39 39 34 31 31 32 32 31 32 31 32 32 33 32 31 31 32 33 32 34 35 38 37 38 36 29 30 32 37 39 39 39 39 38 34 19 18 17 18 10 14 9 16 20 27 25 21 22 19 15 17 17 15 13 15 13 13 15 13 11 17 19 18 18 23 22 21 25 27 22 22 26 42 50 52 52 52 51 52 52 53 53 53 53 53 54 54
39 38 37 38 31 32 30 31 31 31 29 32 33 32 31 31 31 31 31 31 35 37 37 38 38 37 37 34 36 39 41 40 41 40 38 38 32 31 11 11 10 17 17 18 24 18 22 21 21 16 14 16 19 19 18 16 15 13 19 18 17 20 18 18 14 20 26 27 23 23 19 22 36 46 49 49 50 51 51 51 52 52 53 53 53 53 53 52